Flag for Netherlands Weather past 2 weeks in Wageningen, Netherlands

Now
55 °F

Low clouds.


Feels Like: 54 °F
Forecast: 49 / 74 °F
Wind: 7 mph from Southwest

Location: Deelen

Current Time: Aug 28, 2015 at 7:33:37 AM

Latest Report: Aug 28, 2015 at 6:55 AM


Visibility: N/A

Pressure: 29.95 "Hg

Humidity: 100%

Dew point: 55 °F

Location of WageningenLocation

Historic Weather in Wageningen — Graph

°F

Wageningen temperature yesterday

Maximum temperature yesterday: 66 °F (at 2:55 AM)
Minimum temperature yesterday: 57 °F (at 4:25 PM)
Average temperature yesterday: 61 °F

Past Weeks' High & Low Weather Summary

 TemperatureHumidityPressure
High82 °F (Aug 13, 4:25 PM)100% (Aug 14, 6:55 AM)30.24 "Hg (Aug 14, 6:55 AM)
Low54 °F (Aug 18, 10:55 PM)37% (Aug 23, 3:25 PM)29.47 "Hg (Aug 24, 3:55 PM)
Average65 °F79%29.91 "Hg
* Reported Aug 13 5:25 AM — Aug 28 5:55 AM, Wageningen, Weather by CustomWeather, © 2015

Note: Actual official high and low records may vary slightly from our data, if they occured in-between our weather recording intervals... More about our weather records

Advertising

Wageningen weather history for previous 24 hours

 ConditionsComfort  
Time TempWeatherWind HumidityBarometerVisibility
5:55 AM
Fri, Aug 28
55 °FMostly cloudy.8 mph100%29.92 "HgN/A
4:55 AM55 °FMostly cloudy.8 mph100%29.92 "HgN/A
4:25 AM55 °FLow clouds.9 mph100%29.92 "HgN/A
3:55 AM55 °FMostly cloudy.10 mph100%29.92 "HgN/A
3:25 AM55 °FMostly cloudy.9 mph100%29.89 "HgN/A
2:55 AM55 °FMostly cloudy.10 mph100%29.89 "HgN/A
2:25 AM55 °FMostly cloudy.9 mph100%29.89 "HgN/A
1:55 AM57 °FOvercast.9 mph94%29.89 "HgN/A
1:25 AM57 °FPartly cloudy.9 mph94%29.89 "HgN/A
12:55 AM57 °FOvercast.9 mph94%29.89 "HgN/A
12:25 AM57 °FMostly cloudy.9 mph94%29.86 "HgN/A
11:55 PM
Thu, Aug 27
57 °FPassing clouds.8 mph94%29.86 "HgN/A
11:25 PM57 °FPassing clouds.8 mph94%29.86 "HgN/A
10:55 PM57 °FPartly cloudy.9 mph94%29.86 "HgN/A
10:25 PM57 °FPassing clouds.9 mph100%29.86 "HgN/A
9:55 PM57 °FPassing clouds.9 mph100%29.86 "HgN/A
9:25 PM57 °FPartly sunny.9 mph100%29.83 "HgN/A
8:55 PM57 °FBroken clouds.8 mph100%29.83 "HgN/A
8:25 PM57 °FBroken clouds.8 mph100%29.83 "HgN/A
7:55 PM57 °FBroken clouds.8 mph100%29.83 "HgN/A
7:25 PM57 °FBroken clouds.9 mph100%29.83 "HgN/A
6:55 PM59 °FBroken clouds.8 mph94%29.83 "HgN/A
6:25 PM59 °FBroken clouds.10 mph94%29.83 "HgN/A
5:55 PM59 °FBroken clouds.9 mph94%29.83 "HgN/A
5:25 PM57 °FBroken clouds.10 mph100%29.83 "HgN/A
4:55 PM57 °FBroken clouds.12 mph94%29.83 "HgN/A
4:25 PM57 °FMostly cloudy.12 mph94%29.83 "HgN/A
3:55 PM59 °FMostly cloudy.14 mph88%29.83 "HgN/A
3:25 PM59 °FBroken clouds.12 mph94%29.83 "HgN/A
2:55 PM59 °FMostly cloudy.13 mph94%29.83 "HgN/A
2:25 PM59 °FBroken clouds.15 mph94%29.83 "HgN/A
1:55 PM61 °FBroken clouds.13 mph88%29.83 "HgN/A
1:25 PM61 °FBroken clouds.14 mph88%29.83 "HgN/A
12:55 PM61 °FBroken clouds.12 mph88%29.83 "HgN/A
12:25 PM61 °FBroken clouds.10 mph83%29.80 "HgN/A
11:55 AM63 °FPartly sunny.8 mph77%29.80 "HgN/A
11:25 AM63 °FPartly sunny.8 mph77%29.80 "HgN/A
10:55 AM63 °FScattered clouds.10 mph77%29.80 "HgN/A
10:25 AM63 °FPassing clouds.8 mph77%29.80 "HgN/A
9:55 AM63 °FPartly sunny.8 mph77%29.80 "HgN/A
9:25 AM63 °FBroken clouds.10 mph77%29.80 "HgN/A
8:55 AM61 °FScattered clouds.9 mph83%29.77 "HgN/A
8:25 AM61 °FBroken clouds.9 mph83%29.77 "HgN/A
7:55 AM61 °FOvercast.12 mph83%29.77 "HgN/A
7:25 AM61 °FPassing clouds.10 mph83%29.77 "HgN/A
Weather by CustomWeather, © 2015

See weather overviewHow to use our weather pages